Orbital Elements
Epoch 1996 June 6.0 TT = JDT 2450240.5
T 1996 May 29.94425 TT MPC
q 0.7901510 (2000.0) P Q
n 0.10912661 Peri. 337.57535 +0.96757647 -0.23438757
a 4.3369286 Node 36.38985 +0.24905835 +0.82338556
e 0.8178086 Incl. 9.12805 +0.04202047 +0.51681592
P 9.03
From 26 observations 1881 Oct. 19-2014 June 18, mean residual 1".6.
Nongravitational parameters A1 = -0.06, A2 = +0.0240.
|